TimeMST,TemperatureF,Dew PointF,Humidity,Sea Level PressureIn,VisibilityMPH,Wind Direction,Wind SpeedMPH,Gust SpeedMPH,PrecipitationIn,Events,Conditions,WindDirDegrees,DateUTC
12:15 AM,24.8,10.4,54,30.26,10.0,SSW,11.5,-,N/A,,Clear,200,2011-11-27 07:15:00
12:35 AM,24.8,8.6,50,30.25,10.0,South,13.8,-,N/A,,Clear,190,2011-11-27 07:35:00
12:55 AM,24.8,10.4,54,30.24,10.0,South,13.8,-,N/A,,Clear,190,2011-11-27 07:55:00
1:15 AM,24.8,10.4,54,30.24,10.0,South,12.7,-,N/A,,Clear,180,2011-11-27 08:15:00
1:35 AM,24.8,10.4,54,30.24,10.0,South,15.0,-,N/A,,Clear,190,2011-11-27 08:35:00
1:55 AM,24.8,10.4,54,30.23,10.0,South,13.8,-,N/A,,Clear,180,2011-11-27 08:55:00
2:15 AM,24.8,10.4,54,30.22,10.0,South,15.0,-,N/A,,Clear,180,2011-11-27 09:15:00
2:55 AM,23.0,10.4,59,30.21,10.0,South,12.7,-,N/A,,Clear,190,2011-11-27 09:55:00
3:15 AM,21.2,10.4,63,30.20,10.0,South,12.7,-,N/A,,Clear,180,2011-11-27 10:15:00
3:35 AM,21.2,10.4,63,30.19,10.0,South,11.5,-,N/A,,Clear,180,2011-11-27 10:35:00
3:55 AM,21.2,10.4,63,30.19,10.0,South,10.4,-,N/A,,Clear,180,2011-11-27 10:55:00
4:15 AM,21.2,10.4,63,30.18,10.0,South,10.4,-,N/A,,Clear,180,2011-11-27 11:15:00
4:35 AM,21.2,10.4,63,30.18,10.0,South,9.2,-,N/A,,Clear,170,2011-11-27 11:35:00
4:55 AM,21.2,12.2,68,30.17,10.0,South,10.4,-,N/A,,Clear,180,2011-11-27 11:55:00
5:15 AM,21.2,12.2,68,30.16,10.0,South,9.2,-,N/A,,Clear,170,2011-11-27 12:15:00
5:35 AM,19.4,12.2,74,30.15,10.0,South,11.5,-,N/A,,Clear,180,2011-11-27 12:35:00
5:55 AM,19.4,10.4,68,30.15,10.0,South,11.5,-,N/A,,Clear,180,2011-11-27 12:55:00
6:15 AM,19.4,10.4,68,30.15,10.0,South,11.5,-,N/A,,Clear,180,2011-11-27 13:15:00
6:35 AM,19.4,12.2,74,30.14,10.0,South,12.7,-,N/A,,Clear,180,2011-11-27 13:35:00
7:15 AM,21.2,12.2,68,30.13,10.0,South,9.2,-,N/A,,Clear,180,2011-11-27 14:15:00
7:35 AM,21.2,12.2,68,30.12,10.0,South,10.4,-,N/A,,Clear,170,2011-11-27 14:35:00
7:55 AM,21.2,14.0,74,30.12,10.0,South,10.4,-,N/A,,Clear,170,2011-11-27 14:55:00
8:15 AM,23.0,14.0,68,30.11,10.0,South,9.2,-,N/A,,Clear,170,2011-11-27 15:15:00
8:35 AM,26.6,15.8,64,30.11,10.0,South,11.5,-,N/A,,Clear,170,2011-11-27 15:35:00
8:55 AM,26.6,15.8,64,30.11,10.0,South,11.5,-,N/A,,Clear,170,2011-11-27 15:55:00
9:15 AM,28.4,15.8,59,30.10,10.0,South,10.4,-,N/A,,Clear,170,2011-11-27 16:15:00
9:35 AM,32.0,15.8,51,30.09,10.0,South,9.2,-,N/A,,Clear,180,2011-11-27 16:35:00
9:55 AM,33.8,17.6,52,30.09,10.0,South,9.2,-,N/A,,Clear,170,2011-11-27 16:55:00
10:55 AM,39.2,19.4,45,30.07,10.0,South,11.5,-,N/A,,Clear,170,2011-11-27 17:55:00
11:15 AM,41.0,19.4,42,30.05,10.0,SE,9.2,-,N/A,,Clear,130,2011-11-27 18:15:00
11:35 AM,44.6,19.4,37,30.05,10.0,South,13.8,-,N/A,,Clear,180,2011-11-27 18:35:00
11:55 AM,46.4,19.4,34,30.03,10.0,SE,8.1,-,N/A,,Clear,140,2011-11-27 18:55:00
12:35 PM,46.4,19.4,34,30.00,10.0,SSE,13.8,-,N/A,,Clear,150,2011-11-27 19:35:00
12:55 PM,48.2,19.4,32,29.99,10.0,South,10.4,-,N/A,,Clear,180,2011-11-27 19:55:00
1:15 PM,48.2,19.4,32,29.97,10.0,South,9.2,-,N/A,,Clear,190,2011-11-27 20:15:00
2:15 PM,51.8,19.4,28,29.95,10.0,SSW,15.0,-,N/A,,Clear,210,2011-11-27 21:15:00
2:35 PM,51.8,19.4,28,29.94,10.0,SW,16.1,-,N/A,,Clear,220,2011-11-27 21:35:00
2:55 PM,50.0,19.4,30,29.93,10.0,SW,16.1,21.9,N/A,,Clear,220,2011-11-27 21:55:00
3:15 PM,48.2,17.6,30,29.93,10.0,SW,16.1,21.9,N/A,,Clear,230,2011-11-27 22:15:00
3:35 PM,48.2,19.4,32,29.92,10.0,SSW,15.0,-,N/A,,Clear,210,2011-11-27 22:35:00
3:55 PM,46.4,19.4,34,29.91,10.0,SSW,13.8,-,N/A,,Clear,200,2011-11-27 22:55:00
4:15 PM,46.4,19.4,34,29.91,10.0,SSW,13.8,-,N/A,,Clear,210,2011-11-27 23:15:00
4:35 PM,44.6,19.4,37,29.90,10.0,SSW,13.8,-,N/A,,Clear,210,2011-11-27 23:35:00
4:55 PM,44.6,21.2,39,29.90,10.0,SSW,12.7,-,N/A,,Clear,210,2011-11-27 23:55:00
5:15 PM,44.6,21.2,39,29.89,10.0,SSW,16.1,-,N/A,,Clear,210,2011-11-28 00:15:00
5:35 PM,44.6,21.2,39,29.88,10.0,SSW,12.7,-,N/A,,Clear,200,2011-11-28 00:35:00
5:55 PM,42.8,21.2,42,29.87,10.0,SSW,12.7,-,N/A,,Clear,200,2011-11-28 00:55:00
6:15 PM,42.8,21.2,42,29.87,10.0,SSW,8.1,-,N/A,,Clear,200,2011-11-28 01:15:00
6:35 PM,41.0,21.2,45,29.87,10.0,South,8.1,-,N/A,,Clear,190,2011-11-28 01:35:00
6:55 PM,39.2,21.2,49,29.86,10.0,South,11.5,-,N/A,,Clear,190,2011-11-28 01:55:00
7:35 PM,39.2,21.2,49,29.86,10.0,South,8.1,-,N/A,,Clear,190,2011-11-28 02:35:00
7:55 PM,41.0,21.2,45,29.85,10.0,SSE,6.9,-,N/A,,Clear,160,2011-11-28 02:55:00
8:15 PM,41.0,21.2,45,29.86,10.0,SSE,9.2,-,N/A,,Clear,160,2011-11-28 03:15:00
8:35 PM,42.8,21.2,42,29.85,10.0,SSW,10.4,-,N/A,,Clear,200,2011-11-28 03:35:00
8:55 PM,44.6,23.0,43,29.84,10.0,SSW,11.5,-,N/A,,Clear,200,2011-11-28 03:55:00
9:15 PM,46.4,24.8,43,29.84,10.0,SSW,15.0,-,N/A,,Clear,200,2011-11-28 04:15:00
9:35 PM,44.6,23.0,43,29.83,10.0,SSW,13.8,-,N/A,,Clear,200,2011-11-28 04:35:00
9:55 PM,44.6,23.0,43,29.83,10.0,SSW,12.7,-,N/A,,Clear,200,2011-11-28 04:55:00
10:15 PM,44.6,23.0,43,29.82,10.0,South,13.8,-,N/A,,Clear,190,2011-11-28 05:15:00
10:35 PM,48.2,21.2,34,29.82,10.0,WSW,15.0,-,N/A,,Clear,240,2011-11-28 05:35:00
10:55 PM,48.2,19.4,32,29.83,10.0,SW,11.5,-,N/A,,Clear,230,2011-11-28 05:55:00
11:15 PM,48.2,19.4,32,29.82,10.0,SW,10.4,-,N/A,,Clear,220,2011-11-28 06:15:00
11:35 PM,48.2,19.4,32,29.82,10.0,SW,11.5,-,N/A,,Clear,230,2011-11-28 06:35:00
11:55 PM,48.2,19.4,32,29.82,10.0,SW,13.8,-,N/A,,Clear,230,2011-11-28 06:55:00